DELTA 1 DEB, 10706

Orbit data source: Space-Track

DELTA 1 DEB, 10706 is space debris in SSO originally from a launch on Thu, 29 Jul 1976 UTC launched from the Air Force Western Test Range (AFWTR). Debris objects in space refer to the collection of defunct objects orbiting the Earth. Examples of debris include non-operational satellites, rocket bodies, and fragments generated from explosions, collisions, or faulty payload assembly.

Loading next visibility...
Identifier
10706, 1976-077AB
Orbit
SSO
Last TLE update
7 hours ago
Origin
Manufacturer
Unknown
Mission
Spacecraft
Bus & Motor
Unknown
Mass
Unknown
Launch date (UTC)
1976-07-29 (49 years ago)
Launch vehicle
Unknown
Launch site
Air Force Western Test Range (AFWTR)
Object type
Payload
Rocket body
Debris
Shape & HBR
Unknown
Radar Cross Section
Small (<0.1 m²)

Expand to show TLE details & history

TLE from 7 hours ago
0 DELTA 1 DEB
1 10706U 76077AB  25129.04724038  .00000443  00000-0  15137-2 0  9998
2 10706 101.5628 334.5282 0387252 257.5295 260.6917 12.82820077267898
Epoch: 2025-05-09T01:08Z
Definitive object data (Epoch: 2025-05-09T01:08:01.568Z)
Latitude
25.58172°
Longitude
-83.99435°
Altitude
1,392.433 km
Speed
7.138 km/s
True Right ascension
10h 40m 29s
True Declination
25° 27' 32"
Sunlit
Object was in daylight at TLE epoch
Visualization TLE readout
Latitude
12.94039°
Longitude
88.01974°
Altitude
1,454.825 km
Speed
7.079 km/s
Apparent Right ascension
00h 16m 42s
Apparent Declination
-14° 08' 57"
Sunlit
Object is in daylight
Visualization observer readout
Local Sidereal Time
15:59:49
Azimuth
78.548° E
Elevation
-35.107°
Doppler factor
1
Orbital elements
Apogee altitude
1,626.047 km
Perigee altitude
1,029.232 km
Semi-major axis
7,705.777 km
Eccentricity
0.0387252
Inclination
101.5628°
RAAN
334.5282°
Arg. of periapsis
257.5295°
True anomaly
256.35074°
Mean anomaly
260.6917°
Eccentric anomaly
258.51732°
Mean motion
3.20862 °/min
BSTAR
0.0015137
Orbital period
112.2 mins
Loading maneuver chart data...
Loading SW <> Apogee altitude chart data...
Loading historical data...
Loading historical data...
Loading historical data...
Loading historical data...
Loading historical data...
Loading historical data...
Loading historical data...

DELTA 1 DEB Visibility forecast

Observer location: undefined°, undefined°

Span
Click to sort rows by Start time (UTC) header in descending order
Start Az.
Max El. time (UTC)
Max El. Az.
Max El.
End time (UTC)
End Az.
12 mins2025-05-09 11:41:45.302Z98.684° ESE2025-05-09 11:47:45.302Z50.786° ENE23.573°2025-05-09 11:53:45.302Z6.244° NNE
16 mins2025-05-09 13:29:45.302Z164.124° S2025-05-09 13:36:45.302Z274.549° WNW44.854°2025-05-09 13:45:45.302Z341.977° N
9 mins2025-05-09 15:23:45.302Z239.079° WSW2025-05-09 15:27:45.302Z269.303° W17.03°2025-05-09 15:32:45.302Z305.466° NW
11 mins2025-05-10 01:18:45.302Z46.235° ENE2025-05-10 01:23:45.302Z88.632° E24.635°2025-05-10 01:29:45.302Z143.981° SSE
15 mins2025-05-10 03:07:45.302Z10.252° NNE2025-05-10 03:14:45.302Z302.116° NW42.385°2025-05-10 03:22:45.302Z213.47° SW
8 mins2025-05-10 04:59:45.302Z340.911° N2025-05-10 05:03:45.302Z311.4° NW15.663°2025-05-10 05:07:45.302Z281.912° WNW
|